Other Surface Observations
Issued by NWS Tucson, AZ

Home | Current Version | Previous Version | Text Only | Print | Product List | Glossary On
Versions: 1 2 3 4 5 6 7 8 9 10 11 12 13 14 15 16 17 18 19 20 21 22 23 24 25 26 27 28 29 30 31 32 33 34 35 36 37 38 39 40 41 42 43 44 45 46 47 48 49 50
992
SXUS55 KTWC 241815
OSOTWC

WEATHER ROUNDUP FOR SOUTHEAST ARIZONA
NATIONAL WEATHER SERVICE TUCSON AZ
1115 AM MST TUE MAY 24 2016

AZZ504>506-514-241915-
LOCATION       SKY/WX    TMP DP  RH WIND       PRES   REMARKS
TUCSON         SUNNY     84  22  10 S14G21    29.96S
DAVIS-MONTHAN  MOSUNNY   82  24  12 SW13G20   29.94F
CHILDRENS PARK N/A      N/A N/A  14 S3                PIMA CO DEQ
ALVERNON/22ND  N/A       78 N/A N/A S6                PIMA CO DEQ
CHERRY/GLENN   N/A      N/A N/A N/A N/A               PIMA CO DEQ
TANGERINE      N/A       77 N/A N/A S6                PIMA CO DEQ
CONTL RANCH    N/A       81  26  13 SW7               PIMA CO DEQ
GRANT/1ST      N/A       79  26  14 S0                PIMA CO DEQ
CRAYCROFT/22ND N/A       78  27  15 SW6               PIMA CO DEQ
GOLFLINKS/KOLB N/A      N/A N/A N/A N/A               PIMA CO DEQ
AJO/12TH       N/A       79  29  16 S8                PIMA CO DEQ
SAGUARO EAST   N/A       25 -16  15 SW6               PIMA CO DEQ
FAIRGROUNDS    N/A       77 N/A N/A SW13              PIMA CO DEQ
SAGUARO        N/A       81  29  15 SW4G10            *SABINO CYN
SAN CARLOS     N/A       79  26  14 S12G18            *SAN CARLOS
GREEN VALLEY   N/A       78  30  17 SW12              PIMA CO DEQ
HORSE CAMP CYN N/A       73  24  16 W10G17            *ARAVAIPA CYN
RINCON MTNS    N/A       61  22  22 SW4G13            *NR MANNING CAMP
$$

AZZ509>511-241915-
LOCATION       SKY/WX    TMP DP  RH WIND       PRES   REMARKS
SAFFORD        SUNNY     82  22  11 N10       29.93F
STRAY HORSE    N/A       58  16  19 W10G17            *
TRAIL CABIN    N/A       69  19  15 SW7G14            *N OF GRANVILLE
BLACK HILLS    NOT AVBL
DRY LAKE       N/A       62  19  19 S9G19             *NATANES MTNS
NOON CREEK     N/A       74  25  16 NE7G14            *PINALENO MTNS
COLUMBINE      N/A       51  20  29 SW8G16            *PINALENO MTNS
GUTHRIE        N/A       66  20  17 SW12G29           *SW OF GUTHRIE
$$

AZZ502-503-513-241915-
LOCATION       SKY/WX    TMP DP  RH WIND       PRES   REMARKS
NOGALES        SUNNY     80  28  15 S12G21    30.01F
SELLS          N/A       80  27  14 N10G16            *
SASABE         N/A       77  24  14 S13G24            *ALTAR VLY
HOPKINS        N/A       65  29  26 SW7G16            *SANTA RITA MTNS
CARR CYN       N/A       74  25  16 W4G13             *W OF HEREFORD
$$

AZZ507-508-512-241915-
LOCATION       SKY/WX    TMP DP  RH WIND       PRES   REMARKS
SIERRA VISTA   SUNNY     77  23  13 W16G24    30.05S
DOUGLAS        SUNNY     80  23  12 SW17G23   30.02F
EMPIRE MTNS    NOT AVBL
MULESHOE RANCH N/A       74  22  14 S8G15             *PRESERVE
HEADQUARTERS   NOT AVBL
$$

.............................NOTES.............................
THIS IS AN AUTOMATED COLLECTIVE WITH MINIMAL QUALITY CONTROL.
PIMA CO DEQ SITES HAVE NONSTANDARD WIND SENSOR HEIGHTS.
PIMA CO DEQ SITES DO NOT REPORT WIND GUSTS.
* INDICATES WIND SENSORS LOCATED AT 20 FEET INSTEAD OF 33 FEET.
..............................KEY..............................
SKY/WX - SKY CONDITION/WEATHER
TMP    - TEMPERATURE IN FAHRENHEIT
DP     - DEWPOINT IN FAHRENHEIT
RH     - RELATIVE HUMIDITY IN PERCENT
WIND   - DIRECTION AND SPEED IN MILES PER HOUR (MPH)
VRB    - VARIABLE WIND DIRECTION
PRES   - MEAN SEA LEVEL PRESSURE IN INCHES OF MERCURY
         F - FALLING PRESSURE   R - RISING PRESSURE
         S - STEADY PRESSURE
VSB    - VISIBILITY IN MILES
HX     - HEAT INDEX IN FAHRENHEIT
WCI    - WIND CHILL INDEX IN FAHRENHEIT
N/A    - NOT AVAILABLE
AFB    - AIR FORCE BASE
         DAVIS-MONTHAN IS DAVIS-MONTHAN AIR FORCE BASE
CYN    - CANYON
MTNS   - MOUNTAINS
NCA    - NATIONAL CONSERVATION AREA
NR     - NEAR
VLY    - VALLEY
CONTL  - CONTINENTAL
PIMA CO DEQ - PIMA COUNTY DEPT OF ENVIRONMENTAL QUALITY



USA.gov is the U.S. government's official web portal to all federal, state and local government web resources and services.